Wetbulb
45.10 44.93 44.95 45.35 45.71 45.53 42.14 37.99 26.43 41.09 44.64 32.48 33.65 27.61 31.59 36.21 34.60 38.38 36.53 37.17 36.75 34.47 34.93 34.23 34.75 34.92 38.91 42.03 41.74 38.24 39.64 37.40 31.21 34.22 41.12 43.50 42.48 39.98 38.69 33.88 32.88 35.64 33.20 35.27
44.80 44.58 44.87 45.12 45.44 45.24 37.91 33.97 31.14 39.65 42.25 28.38 26.83 31.89 32.55 34.06 33.33 34.30 35.35 35.48 37.53 37.55 33.85 30.29 34.92 36.62 42.51 42.16 40.00 37.01 37.87 34.66 29.54 32.54 38.35 42.52 38.89 40.49 40.52 39.94 38.94 34.63 31.88 34.97
44.37 44.44 44.44 44.94 45.25 45.27 41.33 34.18 26.68 31.36 34.60 33.52 32.59 30.67 30.78 30.83 37.02 35.49 36.95 35.66 37.11 35.48 33.45 35.56 33.03 35.55 41.32 42.20 41.76 42.89 40.41 36.28 33.92 29.57 34.03 38.38 35.94 38.93 40.73 38.56 33.74 34.64 36.36 39.35
43.78 44.17 44.45 44.42 44.78 45.03 40.34 34.12 28.32 31.78 28.29 28.18 30.47 31.67 31.62 30.22 31.64 36.70 37.24 33.51 33.97 33.57 31.15 32.88 32.66 36.18 37.23 40.82 42.54 40.79 38.85 32.62 36.28 36.53 37.63 39.43 37.51 37.11 39.33 37.64 38.04 35.77 38.74 39.58
43.70 43.82 44.04 44.57 44.27 44.58 37.78 29.75 28.00 31.58 30.05 32.02 31.35 32.18 29.30 29.77 31.38 33.77 32.85 32.66 35.05 35.06 32.33 33.44 31.73 35.48 36.19 36.16 40.21 38.80 39.23 31.93 34.87 33.04 38.35 38.29 37.23 38.67 40.36 39.92 40.44 40.65 40.88 39.65
43.56 43.64 43.75 44.21 44.44 43.62 34.96 37.59 36.79 33.14 30.06 29.33 26.69 28.41 31.02 31.46 34.14 35.40 36.53 36.27 34.76 33.65 36.74 37.95 38.28 38.86 38.97 38.10 36.19 36.10 36.21 34.00 31.84 29.02 34.09 35.07 30.58 37.00 39.18 39.39 40.77 40.78 36.50 42.36
43.61 43.63 43.68 44.43 44.27 43.91 36.80 36.37 35.94 30.02 24.05 26.99 27.22 30.26 31.53 31.99 33.37 32.05 36.46 37.61 35.58 38.98 43.33 41.71 41.45 39.39 38.88 38.72 38.55 39.57 34.69 32.74 32.55 27.91 30.79 24.83 36.59 41.91 42.90 40.35 41.02 42.95 43.31 43.97
43.28 43.82 43.77 44.11 43.85 44.36 40.17 38.93 36.65 33.19 22.36 28.34 29.11 30.61 31.05 33.04 34.91 33.38 35.07 38.17 40.76 42.93 40.22 32.61 30.04 28.54 30.06 33.30 36.36 36.43 37.09 33.00 26.90 26.71 28.12 32.34 35.67 39.75 38.74 38.91 38.72 43.53 42.71 43.92
43.68 43.71 43.34 43.53 43.68 43.99 40.96 40.04 40.93 35.98 28.56 24.56 32.17 30.26 32.37 29.87 30.16 33.13 34.59 41.22 41.63 38.46 32.65 28.22 23.76 21.47 27.97 27.72 32.36 37.75 36.47 35.05 29.18 27.16 25.22 23.87 34.53 41.37 44.62 43.15 33.58 43.42 43.39 43.24
43.88 44.07 43.90 43.97 43.43 43.77 41.12 38.35 41.24 37.09 28.99 31.77 32.07 29.21 31.08 34.48 32.21 31.70 35.07 35.96 35.24 37.10 31.01 22.91 24.74 23.64 32.23 25.36 27.51 28.50 29.05 29.42 26.82 26.42 25.20 30.98 40.36 42.77 44.72 32.31 34.83 43.40 44.24 43.25
44.35 44.17 44.15 43.98 44.10 43.83 41.35 38.10 41.95 37.38 32.45 33.46 36.17 35.98 32.74 33.72 34.10 31.11 34.27 32.27 34.97 32.08 25.92 24.14 25.07 23.91 29.07 28.89 33.18 32.43 29.62 28.02 26.90 26.56 23.97 23.66 42.81 41.00 36.75 40.29 43.18 43.24 42.86 42.84
44.38 44.66 44.35 43.98 43.95 44.20 43.29 36.98 41.91 41.29 34.86 33.27 38.51 38.70 39.00 37.60 36.64 34.74 36.20 32.48 34.24 35.31 31.65 28.78 29.93 25.40 29.42 31.38 27.15 37.26 29.97 34.19 29.68 30.57 29.21 39.83 44.57 43.38 44.51 44.22 42.57 42.48 42.35 42.93
44.88 45.00 45.27 43.88 43.83 44.19 42.63 37.61 38.19 37.46 34.37 33.40 32.82 32.52 38.34 41.43 39.95 40.92 33.37 36.15 39.57 38.10 38.63 34.08 33.94 29.60 33.23 27.05 29.73 33.90 37.03 39.71 35.14 34.97 38.17 39.63 42.14 43.41 43.89 43.11 41.95 42.11 41.84 41.78
45.61 45.55 45.10 44.88 43.74 43.97 42.75 37.29 37.94 38.14 36.18 22.94 28.27 39.40 36.86 40.79 40.61 39.99 39.41 38.07 40.16 38.81 38.06 34.46 32.99 31.91 37.63 31.27 34.22 32.56 37.38 36.27 35.81 36.03 39.50 39.89 39.84 40.33 40.59 40.30 41.58 40.17 40.06 38.88
45.94 44.87 45.09 44.67 43.61 43.55 41.51 38.81 38.52 40.09 34.53 28.31 30.90 36.23 39.13 41.73 40.05 38.79 38.34 37.38 36.61 36.61 34.85 33.35 33.11 36.60 36.50 35.64 35.46 34.01 38.61 32.31 33.70 33.49 38.22 38.75 38.42 40.40 40.26 38.40 38.21 37.54 36.56 33.36
45.00 44.76 44.75 43.84 43.81 43.83 37.77 32.81 38.33 40.66 39.45 31.33 23.51 35.80 37.09 39.62 39.29 39.11 37.38 36.97 36.39 37.45 35.17 34.94 37.43 40.48 36.60 28.51 28.94 36.28 37.09 37.24 36.20 33.13 40.47 37.80 36.46 36.81 38.44 37.58 34.07 33.10 31.43 31.47
44.70 44.69 44.00 44.02 43.69 40.16 33.28 31.56 38.55 42.32 41.59 33.93 28.84 29.61 37.91 38.68 39.22 39.02 37.83 39.09 37.89 38.47 36.61 34.42 35.36 35.43 38.83 29.07 27.10 30.93 33.96 36.17 35.15 37.29 38.44 34.16 34.62 32.48 35.49 35.44 33.30 31.44 28.86 27.93
44.53 43.83 43.76 43.65 43.69 41.42 36.29 38.78 44.73 43.12 36.32 36.52 28.56 28.11 32.15 40.89 36.43 35.69 40.59 37.16 37.64 36.83 36.11 36.37 35.70 36.73 35.36 29.62 29.32 30.17 31.16 33.35 31.83 33.82 35.91 34.62 33.74 31.54 30.70 32.49 30.88 27.11 25.23 24.25
44.00 43.73 43.73 40.94 38.30 36.04 35.49 44.63 44.90 43.90 36.43 29.00 30.00 25.10 27.95 39.38 37.04 37.65 37.09 38.63 31.17 37.94 32.93 33.71 34.04 28.20 25.04 27.06 27.06 27.12 28.52 28.07 28.23 32.45 31.43 31.76 29.21 27.50 27.05 26.85 26.29 24.40 23.70 23.41
43.93 40.58 34.60 30.62 35.99 44.35 43.77 39.20 35.17 34.64 35.71 35.27 28.99 33.42 28.42 36.64 34.79 32.68 33.31 34.33 31.92 28.00 30.33 34.78 31.43 24.51 28.53 28.02 27.52 26.91 27.27 28.13 28.38 26.43 24.88 26.80 25.78 23.96 23.28 23.42 23.78 23.57 21.76 20.40
39.82 34.36 32.81 40.96 44.39 39.30 35.81 30.61 30.34 30.66 28.71 31.90 32.10 32.00 30.53 38.45 31.43 31.47 33.45 29.48 29.54 25.50 29.18 29.01 28.04 23.17 24.98 26.12 25.20 26.15 26.44 27.15 27.57 27.10 26.38 25.51 24.71 23.13 21.52 20.87 20.47 19.83 19.43 18.16
40.29 40.12 41.91 40.51 35.99 32.48 30.72 27.89 30.18 28.42 27.10 30.90 29.56 31.24 35.83 36.40 39.34 33.17 34.01 30.32 30.47 25.80 31.92 28.67 18.14 22.58 24.44 24.21 24.07 24.51 24.68 24.31 23.25 24.00 22.60 23.00 22.52 21.66 20.69 19.68 18.80 18.59 18.42 17.87
41.83 37.95 34.81 34.20 32.09 27.70 26.63 21.36 23.75 24.05 30.90 32.69 33.47 32.81 34.09 34.47 34.94 31.17 31.86 28.37 26.21 32.70 28.32 20.03 20.16 23.39 24.16 23.35 23.07 22.54 23.40 22.45 21.44 20.26 20.20 19.42 18.91 19.54 18.19 16.40 15.40 15.06 14.09 12.43
33.85 29.81 21.09 26.85 25.12 24.95 24.68 26.50 27.85 30.83 32.28 32.89 32.72 31.48 32.06 32.45 30.54 30.67 26.71 27.85 26.57 25.44 20.25 14.03 19.04 20.89 21.41 21.54 21.58 20.00 18.50 18.68 17.46 17.04 17.10 15.91 15.33 14.64 14.61 12.85 10.43 12.19 12.51 12.47
27.69 27.25 21.35 21.32 25.46 25.41 27.82 30.05 29.83 31.06 32.98 32.92 30.10 27.57 28.40 26.30 27.13 28.97 26.60 21.60 21.35 18.90 12.27 16.38 19.03 19.36 18.72 17.50 18.47 17.37 17.88 16.78 15.91 15.81 15.00 12.60 11.11 13.44 13.99 12.04 11.66 12.38 12.23 12.19
25.47 25.32 24.53 27.14 23.56 25.16 27.11 28.97 27.79 31.25 31.88 33.26 32.36 27.74 27.04 25.92 27.42 22.17 18.53 19.63 12.93 13.68 14.77 18.96 20.15 18.58 18.89 18.70 18.81 18.64 18.97 18.05 17.65 17.28 16.42 14.46 12.03 12.76 13.00 12.61 13.48 12.12 11.35 9.87
21.97 19.73 23.62 23.51 19.33 19.20 25.65 27.77 28.71 32.42 30.40 29.33 27.60 20.71 22.07 25.13 19.99 16.76 18.66 12.03 16.12 18.90 19.85 20.33 20.06 18.87 18.68 19.02 20.03 19.87 20.36 20.31 19.59 19.11 18.23 17.49 17.46 17.25 17.00 14.40 14.56 15.66 14.72 11.04
MSLP
1018.34 1018.30 1018.30 1018.22 1018.06 1018.16 1018.23 1018.14 1017.14 1014.35 1013.92 1015.68 1015.28 1014.73 1013.57 1012.66 1011.07 1010.02 1009.36 1008.08 1007.10 1006.90 1006.46 1005.83 1005.50 1005.40 1005.47 1005.73 1005.71 1005.89 1006.28 1005.98 1004.66 1003.71 1002.85 1002.64 1003.16 1003.46 1005.36 1006.10 1005.78 1004.85 1003.68 1001.99
1017.91 1017.81 1017.92 1017.83 1017.75 1017.89 1018.15 1017.81 1016.74 1014.74 1014.96 1014.76 1014.66 1014.03 1013.16 1012.66 1011.58 1010.27 1009.36 1008.46 1007.72 1007.44 1007.32 1007.28 1006.09 1005.79 1005.48 1005.94 1006.03 1006.53 1006.71 1006.38 1005.62 1004.18 1003.16 1002.66 1003.13 1003.18 1004.80 1005.46 1005.54 1005.51 1004.81 1002.79
1017.38 1017.37 1017.40 1017.37 1017.36 1017.53 1018.20 1018.25 1017.15 1015.05 1014.75 1014.66 1014.45 1014.12 1013.05 1011.97 1010.92 1010.10 1009.55 1008.87 1008.43 1008.01 1007.62 1007.24 1006.91 1006.43 1005.98 1006.20 1006.37 1006.71 1006.96 1007.27 1006.92 1006.01 1005.03 1004.86 1004.21 1003.90 1003.77 1004.95 1005.26 1004.99 1004.60 1003.52
1016.92 1016.91 1016.87 1016.91 1016.93 1017.22 1017.99 1018.07 1017.28 1015.68 1014.78 1014.74 1014.34 1014.12 1013.10 1012.01 1011.15 1009.88 1009.31 1008.91 1008.69 1008.50 1008.13 1007.54 1007.36 1006.92 1006.40 1006.14 1006.31 1006.93 1007.75 1007.94 1007.40 1006.70 1005.88 1005.09 1004.76 1004.04 1003.61 1003.99 1004.59 1004.67 1004.24 1004.24
1016.21 1016.36 1016.38 1016.46 1016.45 1016.95 1017.65 1017.69 1017.45 1015.93 1015.16 1014.80 1014.83 1014.19 1012.97 1012.13 1011.00 1011.09 1009.89 1009.40 1008.75 1008.43 1008.24 1008.04 1007.91 1007.85 1007.72 1007.52 1007.38 1007.74 1008.30 1008.54 1008.16 1007.09 1006.00 1004.90 1004.18 1003.57 1002.89 1003.68 1003.78 1003.65 1003.98 1004.14
1015.53 1015.69 1015.79 1015.87 1016.06 1016.60 1017.10 1017.26 1017.12 1017.30 1015.59 1014.91 1014.40 1013.59 1013.02 1012.21 1011.49 1010.20 1010.45 1009.97 1009.70 1009.05 1008.86 1008.75 1008.31 1008.33 1008.34 1008.34 1008.43 1008.60 1009.07 1009.04 1008.72 1007.71 1006.67 1005.56 1004.01 1002.56 1002.46 1002.83 1003.27 1003.43 1003.60 1002.77
1014.75 1014.90 1015.09 1015.22 1015.42 1015.91 1016.63 1016.68 1016.78 1016.71 1015.54 1015.26 1014.30 1013.51 1012.87 1012.40 1012.08 1011.43 1010.19 1009.62 1009.82 1009.71 1009.34 1008.83 1008.46 1008.40 1008.54 1008.41 1008.50 1008.49 1009.20 1009.23 1009.26 1008.59 1007.36 1005.75 1003.53 1002.01 1001.35 1001.41 1002.89 1002.68 1001.67 1002.12
1013.93 1014.05 1014.30 1014.60 1014.82 1015.17 1016.07 1016.44 1016.70 1016.40 1015.47 1014.83 1014.05 1013.59 1012.82 1012.40 1012.22 1011.89 1011.02 1009.87 1009.66 1009.63 1010.18 1009.90 1009.58 1009.09 1008.60 1008.22 1007.86 1008.00 1008.41 1009.13 1009.38 1009.25 1007.84 1006.07 1003.70 1001.88 1001.01 1000.99 1001.66 1000.83 1000.80 1001.36
1013.08 1013.32 1013.60 1013.92 1014.17 1014.59 1015.30 1015.75 1016.17 1016.26 1016.06 1014.57 1014.26 1013.86 1013.10 1013.24 1012.54 1011.73 1011.04 1010.35 1010.16 1010.29 1011.08 1011.22 1010.76 1009.91 1008.86 1007.95 1007.14 1006.65 1007.75 1008.50 1009.36 1009.07 1007.98 1006.30 1004.22 1002.15 1000.89 1000.81 1002.49 1002.48 1001.54 1002.29
1011.99 1012.27 1012.64 1013.05 1013.47 1013.87 1014.65 1014.95 1015.42 1015.80 1015.42 1014.10 1014.31 1014.37 1013.66 1013.37 1013.32 1012.55 1011.47 1010.83 1011.03 1011.04 1011.58 1011.85 1011.36 1010.60 1009.51 1008.37 1007.39 1007.31 1007.81 1008.51 1008.64 1008.82 1007.85 1005.82 1003.65 1003.12 1002.22 1002.56 1004.80 1003.86 1003.41 1003.74
1010.69 1011.02 1011.46 1011.96 1012.49 1013.11 1013.94 1014.22 1014.52 1015.36 1014.95 1014.13 1013.59 1013.12 1013.37 1013.02 1012.96 1012.79 1012.72 1012.14 1011.68 1011.97 1012.04 1012.03 1011.22 1010.50 1009.24 1008.12 1007.37 1007.34 1007.77 1008.21 1008.43 1008.44 1007.70 1006.09 1003.64 1003.65 1003.86 1004.74 1004.73 1004.76 1004.84 1005.15
1009.15 1009.42 1009.87 1010.55 1011.43 1012.18 1013.15 1013.81 1013.92 1014.60 1015.13 1014.06 1013.26 1012.56 1012.39 1012.49 1012.08 1012.51 1012.91 1013.07 1012.15 1012.04 1012.31 1011.98 1011.19 1010.26 1009.16 1008.22 1007.78 1007.67 1007.94 1007.71 1007.68 1007.03 1006.17 1005.21 1004.37 1003.79 1004.60 1004.93 1005.13 1005.69 1005.89 1006.37
1007.43 1007.74 1008.13 1008.93 1010.15 1011.27 1012.25 1013.18 1013.58 1014.41 1014.69 1013.99 1013.35 1011.99 1011.37 1011.35 1011.29 1011.37 1012.49 1012.32 1011.96 1012.29 1012.96 1012.78 1011.75 1010.55 1009.64 1008.53 1007.85 1007.36 1007.71 1007.82 1007.72 1006.91 1006.67 1006.13 1006.53 1007.03 1006.24 1006.35 1006.44 1007.02 1007.44 1007.95
1005.65 1006.06 1006.63 1007.66 1009.19 1010.60 1011.72 1012.69 1013.06 1013.80 1013.83 1013.56 1011.77 1010.50 1010.63 1010.24 1010.49 1010.79 1011.14 1011.66 1011.97 1012.41 1012.88 1012.69 1011.88 1010.33 1008.79 1008.55 1008.15 1008.00 1008.13 1008.42 1008.18 1007.47 1008.02 1007.85 1008.67 1009.30 1008.72 1008.87 1008.57 1008.64 1009.61 1010.13
1004.55 1005.21 1005.90 1007.15 1008.94 1010.33 1011.57 1012.51 1012.66 1012.91 1013.42 1012.74 1011.88 1010.82 1009.61 1009.34 1009.59 1010.12 1010.67 1011.25 1011.77 1012.24 1012.58 1012.23 1011.35 1010.26 1009.10 1008.47 1008.28 1009.07 1009.10 1009.62 1008.78 1009.32 1009.14 1008.64 1010.10 1010.35 1010.43 1010.67 1011.45 1011.05 1011.48 1012.43
1004.43 1005.12 1006.18 1007.52 1008.88 1010.20 1011.75 1012.70 1012.52 1012.44 1013.03 1013.33 1012.29 1010.19 1009.43 1009.09 1009.03 1009.70 1010.26 1010.84 1011.51 1012.02 1012.25 1011.80 1011.10 1009.69 1009.03 1009.35 1009.75 1010.60 1010.39 1010.41 1010.45 1010.42 1010.06 1010.38 1011.07 1011.68 1011.85 1011.95 1012.47 1012.88 1013.50 1014.31
1004.48 1005.46 1006.66 1007.80 1008.82 1009.98 1010.63 1010.93 1011.16 1011.27 1012.74 1013.02 1012.29 1010.58 1009.06 1008.63 1008.99 1009.52 1010.05 1010.32 1011.03 1011.62 1011.77 1011.64 1010.97 1010.01 1009.58 1009.95 1010.91 1011.94 1011.65 1011.45 1011.77 1011.67 1011.37 1011.70 1012.06 1013.03 1013.51 1013.54 1014.04 1014.80 1015.62 1016.20
1004.96 1006.09 1007.22 1008.38 1009.50 1010.59 1010.69 1010.34 1010.51 1010.98 1012.28 1012.98 1012.06 1010.61 1009.86 1008.44 1008.80 1009.49 1009.86 1010.48 1011.08 1011.35 1011.28 1011.33 1010.83 1010.17 1010.24 1011.54 1012.77 1012.81 1012.79 1012.40 1012.48 1012.44 1012.53 1013.01 1013.78 1014.45 1014.91 1014.92 1015.27 1016.11 1016.99 1017.61
1005.81 1006.91 1008.11 1009.35 1010.12 1010.34 1010.34 1010.30 1010.75 1010.82 1011.44 1011.69 1011.28 1010.28 1009.34 1008.49 1008.78 1009.18 1009.76 1010.05 1010.71 1010.90 1010.87 1010.57 1010.47 1010.91 1012.43 1013.67 1014.01 1014.15 1014.10 1014.12 1014.36 1014.15 1014.44 1014.82 1015.31 1015.97 1016.39 1016.64 1017.03 1017.57 1018.29 1018.71
1006.44 1007.75 1008.83 1009.02 1009.28 1009.31 1009.90 1011.07 1011.07 1011.18 1011.05 1010.57 1010.10 1009.04 1009.21 1009.04 1008.71 1008.92 1009.52 1009.90 1010.04 1010.39 1010.32 1010.02 1010.97 1013.19 1014.47 1015.07 1015.53 1015.77 1015.78 1015.74 1015.58 1015.42 1015.90 1016.28 1016.77 1017.38 1017.81 1018.17 1018.52 1018.79 1019.27 1019.82
1006.64 1007.40 1007.57 1007.59 1008.16 1009.31 1010.06 1010.31 1010.49 1010.76 1010.56 1009.73 1008.98 1008.65 1008.67 1008.63 1008.63 1008.79 1008.94 1009.30 1009.50 1009.83 1010.12 1010.68 1012.22 1014.28 1015.67 1016.36 1016.83 1017.11 1017.20 1017.30 1017.31 1017.42 1017.62 1017.81 1018.00 1018.39 1018.82 1019.35 1019.76 1020.18 1020.66 1021.22
1005.73 1006.01 1006.96 1007.86 1008.60 1009.04 1009.44 1009.79 1009.95 1009.82 1008.95 1008.23 1008.16 1007.99 1008.12 1008.71 1008.51 1008.88 1009.09 1009.45 1009.65 1009.99 1010.47 1011.55 1013.73 1015.88 1016.86 1017.45 1018.00 1018.36 1018.46 1018.65 1018.95 1019.03 1019.16 1019.27 1019.45 1019.83 1020.24 1020.77 1021.24 1021.65 1022.12 1022.52
1005.42 1006.31 1007.47 1007.86 1008.59 1008.78 1008.91 1009.21 1009.09 1008.85 1008.61 1008.50 1008.09 1008.61 1009.08 1009.04 1009.03 1009.37 1009.63 1009.80 1010.15 1010.36 1011.51 1013.73 1015.88 1017.12 1017.94 1018.55 1019.08 1019.50 1019.71 1019.92 1020.21 1020.52 1020.68 1020.88 1021.14 1021.43 1021.81 1022.33 1022.73 1022.95 1023.35 1023.84
1005.67 1006.75 1007.97 1008.56 1008.87 1009.37 1009.41 1009.19 1009.05 1009.21 1009.02 1008.78 1008.83 1009.26 1009.53 1009.69 1009.83 1010.03 1010.43 1010.83 1011.10 1011.83 1013.40 1015.94 1017.58 1018.51 1019.27 1019.77 1020.16 1020.47 1020.95 1021.27 1021.61 1021.88 1022.11 1022.29 1022.59 1022.91 1023.30 1023.58 1023.74 1023.97 1024.34 1024.65
1007.07 1007.77 1009.25 1009.97 1010.19 1010.17 1010.06 1009.90 1009.81 1009.85 1009.61 1009.53 1009.55 1009.91 1009.95 1010.42 1010.80 1010.91 1011.41 1012.09 1012.90 1014.39 1016.24 1017.67 1018.83 1019.57 1020.23 1020.70 1021.05 1021.40 1021.83 1022.19 1022.53 1022.78 1022.97 1023.45 1023.73 1023.94 1024.29 1024.44 1024.50 1024.61 1024.80 1025.20
1008.76 1009.78 1010.33 1010.61 1010.77 1010.93 1010.70 1010.58 1010.57 1010.52 1010.24 1009.98 1009.98 1010.44 1011.00 1011.50 1011.72 1012.43 1013.50 1014.14 1015.61 1016.96 1018.07 1019.09 1019.83 1020.46 1020.97 1021.38 1021.77 1022.10 1022.41 1022.72 1023.02 1023.27 1023.68 1024.07 1024.27 1024.49 1024.82 1024.95 1025.07 1025.20 1025.48 1025.98
1010.31 1011.55 1011.53 1011.37 1011.81 1011.95 1011.81 1011.65 1011.51 1011.15 1011.03 1010.76 1010.88 1011.48 1012.39 1012.76 1013.49 1014.96 1015.76 1016.74 1017.59 1018.46 1019.31 1020.05 1020.67 1021.19 1021.66 1021.96 1022.25 1022.57 1022.80 1023.03 1023.32 1023.67 1023.90 1024.26 1024.49 1024.79 1024.99 1025.29 1025.69 1025.72 1025.96 1026.11
Wind_Speed
13 13 12 11 11 8 2 2 4 6 4 6 4 10 7 8 21 20 17 11 5 8 12 6 5 3 6 4 3 4 4 4 5 15 16 12 10 13 10 3 2 3 2 6
14 13 13 14 13 9 2 3 5 6 6 6 7 7 11 17 19 20 11 11 11 7 10 5 4 6 6 6 2 3 4 4 3 7 5 5 2 5 13 14 6 4 4 3
14 14 14 14 12 10 2 2 4 4 4 4 6 8 11 17 17 20 19 17 14 14 8 8 5 7 1 8 4 6 4 1 5 4 9 1 4 9 11 13 5 5 7 4
15 15 15 12 11 9 4 2 4 5 2 6 7 9 10 16 7 15 13 12 13 17 10 6 4 5 7 6 9 5 4 3 4 11 14 6 9 13 13 9 11 8 4 12
15 14 16 12 11 8 4 2 3 5 7 9 8 9 11 18 17 8 11 9 13 12 10 3 4 5 3 2 5 5 2 3 5 4 9 13 7 17 14 10 6 14 5 8
16 16 16 14 15 9 3 2 2 3 6 6 3 3 8 10 15 16 15 12 10 10 7 4 3 3 3 3 1 3 1 3 3 4 11 12 6 3 7 4 5 6 8 10
19 17 17 16 15 13 4 3 2 3 8 7 8 14 17 15 17 13 15 13 13 2 8 6 5 5 6 8 7 6 6 5 2 4 5 4 7 17 13 14 17 21 12 11
19 18 17 17 17 16 5 3 3 3 3 5 12 14 11 14 8 12 13 8 3 4 6 1 3 3 3 7 15 13 10 5 2 2 3 10 9 10 4 8 4 8 11 12
19 19 19 18 19 18 5 6 5 2 3 7 11 14 12 7 7 4 6 5 4 3 3 3 2 3 4 4 4 17 12 6 4 2 4 4 3 11 11 3 6 15 17 15
21 21 21 20 20 20 9 3 10 3 3 5 10 4 5 3 3 5 5 2 3 3 3 2 4 3 5 4 4 2 8 7 13 7 4 6 6 9 8 3 3 8 13 15
23 22 23 22 21 21 12 4 7 6 2 5 6 6 12 4 1 4 7 4 2 2 2 3 4 3 5 4 6 3 6 8 6 4 4 9 6 5 3 8 5 10 11 12
25 26 27 28 24 22 17 5 7 6 3 4 5 7 6 6 5 4 0 3 6 2 3 1 3 2 3 1 2 4 3 4 2 9 7 4 8 10 10 8 11 10 12 12
25 25 22 27 28 24 18 5 4 3 3 4 6 10 12 10 8 5 4 3 3 4 4 3 3 4 3 1 2 3 2 4 4 4 11 8 17 17 14 13 15 15 14 13
24 22 20 26 28 24 20 6 4 4 2 3 6 8 7 9 9 7 7 7 3 4 2 3 3 4 2 2 3 2 1 3 3 3 8 16 17 13 16 17 15 17 15 15
17 19 17 29 27 24 11 3 3 6 3 2 4 9 9 6 9 14 8 4 3 2 1 3 3 3 4 3 0 4 4 3 2 4 7 11 11 11 15 12 8 12 14 14
13 16 26 26 25 22 5 2 5 4 4 2 3 4 4 4 6 8 7 6 4 3 2 2 3 6 2 1 2 6 11 14 16 7 6 15 15 14 12 10 15 15 15 12
15 24 25 25 25 11 6 6 2 13 5 2 3 4 4 6 5 3 3 4 3 2 1 3 3 3 4 1 3 7 10 10 11 10 7 12 13 8 8 11 15 16 14 12
23 25 24 22 22 7 5 1 5 13 5 2 3 4 1 3 3 2 2 3 2 4 2 2 3 3 2 3 6 8 11 9 15 12 13 12 13 12 11 8 13 13 11 11
24 24 22 10 3 4 3 6 15 2 4 5 3 1 5 0 2 2 2 2 2 4 3 4 3 1 3 4 6 9 12 10 9 8 13 11 12 12 12 11 11 11 12 11
27 10 3 3 6 11 15 3 3 2 3 3 3 2 2 2 3 2 3 2 2 2 4 1 3 3 6 9 9 9 10 12 11 7 8 9 11 12 13 14 12 12 12 12
4 4 4 5 20 3 3 3 3 4 4 4 5 5 3 3 2 2 3 3 2 2 3 4 3 3 4 9 10 9 9 11 10 11 10 11 12 11 11 12 13 12 12 12
6 6 7 3 3 3 5 5 4 5 5 1 3 2 4 1 2 2 3 2 1 2 3 2 3 4 8 9 10 10 9 10 12 12 13 12 13 11 11 11 12 11 11 10
5 4 3 3 3 4 6 8 3 3 2 1 1 4 2 1 3 2 1 0 2 3 2 3 3 7 8 8 8 10 10 10 11 11 12 13 13 13 12 11 9 10 10 7
3 3 5 3 3 3 3 3 3 2 2 3 4 3 2 0 2 2 1 1 2 2 4 3 4 8 9 7 7 9 8 10 10 10 10 11 11 10 9 7 6 8 9 6
4 5 4 3 0 1 0 1 2 3 2 2 2 3 3 2 2 1 2 2 2 4 2 2 5 6 6 6 6 6 7 6 7 6 8 7 5 8 9 6 6 7 7 7
4 6 3 1 3 4 4 4 3 4 3 2 1 3 3 2 2 3 4 3 3 2 3 5 6 7 6 6 7 6 6 6 7 7 6 5 5 7 7 5 6 6 7 6
5 3 3 2 4 3 2 3 2 2 2 1 2 4 1 1 4 3 4 3 4 6 6 5 7 8 6 6 7 6 6 7 7 6 6 6 6 7 6 7 5 6 6 5
Wind_Direction
274 281 282 281 281 279 206 265 267 284 105 173 197 224 218 237 275 292 294 295 298 299 319 320 335 320 74 23 352 18 55 289 253 249 263 278 246 184 169 187 207 284 188 271
274 278 276 274 273 239 307 252 271 279 105 224 218 238 243 242 261 271 284 289 297 261 280 306 316 312 156 176 72 115 357 321 306 318 233 266 232 247 184 214 245 242 303 253
276 278 272 276 261 231 206 290 284 273 176 212 250 248 261 254 246 253 267 282 301 296 252 249 265 300 360 330 57 142 108 229 283 277 325 209 297 285 222 228 219 213 231 308
269 269 266 264 254 229 170 202 254 266 298 262 247 254 271 281 286 265 259 262 253 271 277 267 280 272 268 223 161 114 94 248 295 314 308 240 248 254 262 224 224 212 187 236
263 266 263 249 245 225 196 197 226 313 302 289 233 271 261 263 272 232 277 299 258 265 269 309 313 36 47 5 19 59 81 298 341 274 309 336 228 247 239 177 294 210 234 262
263 258 262 256 243 206 204 181 288 307 291 316 346 269 272 296 293 276 206 287 305 300 18 347 348 338 136 237 3 37 122 257 8 287 349 319 307 253 152 144 305 267 235 206
262 253 250 251 249 215 170 201 221 222 266 252 277 293 299 317 288 301 307 236 219 281 326 327 294 276 228 204 232 200 233 308 158 282 352 254 304 308 184 163 181 246 211 110
260 257 249 243 244 236 195 211 217 259 268 267 275 279 283 316 321 286 304 295 106 144 340 20 282 261 277 237 234 220 207 188 222 220 199 296 310 302 360 173 178 320 95 102
254 252 251 247 241 236 207 214 212 214 262 242 299 299 286 296 298 280 277 85 111 98 94 67 196 239 226 234 230 214 200 180 173 184 215 228 331 314 332 1 53 5 72 70
252 247 243 237 236 231 215 208 196 210 226 254 275 276 309 130 337 295 303 143 88 65 127 134 178 244 269 268 258 230 188 194 212 220 257 281 259 289 336 244 146 34 55 65
248 242 243 236 225 222 215 209 187 195 256 286 265 258 291 297 323 294 9 329 358 30 169 155 228 204 249 250 222 148 203 186 196 194 208 256 288 52 301 148 94 74 55 52
249 241 229 234 224 210 200 217 187 181 206 274 312 267 263 278 250 182 313 347 279 80 227 301 312 291 286 335 270 150 176 239 191 175 200 224 20 114 112 113 98 80 70 60
248 245 242 214 208 202 191 192 153 155 241 269 255 250 258 239 245 187 141 265 10 63 56 343 297 264 350 248 250 88 75 8 245 343 22 49 62 16 61 66 78 68 64 61
247 238 226 198 192 191 184 184 180 160 225 196 270 222 232 221 229 227 190 215 202 156 178 235 252 275 245 252 259 95 310 73 263 157 83 73 60 51 55 33 51 70 59 55
248 208 211 172 181 179 172 173 213 178 208 288 317 305 266 260 205 211 219 203 191 139 179 241 254 254 279 265 44 35 53 352 262 66 354 104 86 77 67 71 51 63 77 63
168 169 161 165 164 162 121 171 241 218 153 309 306 270 247 271 170 179 185 191 182 138 177 246 267 252 293 45 76 44 28 65 40 20 93 100 89 62 58 71 80 68 65 62
163 157 158 159 162 154 160 175 145 175 125 236 265 283 349 238 170 177 167 134 123 125 195 219 258 289 358 25 87 40 24 62 55 40 129 64 58 82 69 82 89 85 80 67
142 147 150 152 153 122 268 266 20 137 110 188 258 260 241 187 134 133 99 128 115 185 190 223 241 300 146 70 45 33 16 27 33 8 72 83 84 73 56 66 92 86 85 83
140 137 137 125 162 185 207 124 147 266 148 185 217 214 347 273 113 133 121 112 155 165 216 225 138 316 58 61 52 37 20 29 5 45 52 61 87 84 70 63 77 86 92 93
134 111 130 169 182 174 114 67 182 187 246 238 240 198 161 243 183 167 132 143 169 179 225 118 83 76 80 80 64 45 31 31 19 41 46 49 86 84 81 76 78 82 79 75
125 151 186 118 115 102 172 148 160 160 223 218 216 177 150 303 136 181 200 181 189 185 225 139 118 110 87 79 69 55 49 43 48 61 62 64 69 84 83 79 78 77 78 80
137 109 76 81 104 160 166 168 178 198 226 160 153 197 111 257 51 54 324 152 3 256 134 140 87 90 91 84 72 62 58 61 56 54 62 62 71 76 85 86 84 80 82 77
105 78 135 189 159 183 181 171 212 144 66 313 42 83 114 133 24 68 93 150 189 128 103 71 54 89 81 85 82 70 65 70 71 63 65 64 65 64 71 75 69 77 72 64
95 115 65 354 116 53 15 20 44 47 23 47 78 66 76 75 69 26 122 349 44 226 142 77 98 88 78 70 78 85 75 74 74 70 73 73 73 74 70 70 69 83 81 69
72 39 70 61 105 51 40 318 79 12 343 71 56 51 92 44 81 346 82 21 95 40 78 86 117 111 113 101 92 91 91 87 83 83 80 73 76 84 80 65 69 76 77 67
63 35 72 72 104 51 27 47 49 6 346 344 23 127 105 70 42 54 23 335 45 69 94 100 95 92 90 94 92 91 93 99 101 91 98 99 92 97 92 78 71 66 77 76
56 31 347 15 81 76 42 18 354 322 317 61 47 60 45 250 80 60 17 33 105 99 89 89 98 104 105 103 107 112 117 117 123 128 122 122 125 134 122 114 140 122 123 120